KOREASAT 7 (42691 NORAD) Tracking and Keplerian Element Data

This shows tracking and keplerian element data for the satellite.

Feedback or suggestion? Click here.




ElementValue
Catalog42691
NameKOREASAT 7
Epoch Orbit556
Epoch Day315.5373792
Epoch Year2018
RAAN95.6692
Inclination0.0274
Eccentricity0.0001727
Argument of Perigee113.9919
Mean Anonmoly150.356
Mean Motion1.00271976
Decay Rate-3.65E-06
L11 42691U 17023A 18315.53737920 -.00000365 00000-0 00000-0 0 9994
L22 42691 0.0274 95.6692 0001727 113.9919 150.3560 1.00271976 5563

Live tracking and technical data element details for KOREASAT 7 (NORAD 42691). KOREASAT 7 can be tracked NOW for your location showing map with azimuth and elevation plus other details from your city location.

Track the satellite on the map from your city or location and see movement details for azimuth, elevation, latitude, longitude, range, height, and movement on the map or in text.







IsCatalogInMostPopularTable: catalog: 42691, numindb: 114
Update: records affected: 1



GetName: 42691 KOREASAT 7

Hit Count: updated at: Mon, 12 Nov 2018 17:44:32 GMT